Flag for Ireland Weather past 2 weeks in Limerick, Ireland

Now
63 °F

Scattered clouds.


Feels Like: 63 °F
Forecast: 54 / 61 °F
Wind: 7 mph from Southeast

Location: Shannon Airport

Current Time: Sep 22, 2014 at 1:13:33 PM

Latest Report: Sep 22, 2014 at 12:30 PM


Visibility: N/A

Pressure: 30.30 "Hg

Humidity: 68%

Dew point: 52 °F

Location of LimerickLocation

Historic Weather in Limerick — Graph

°F

Limerick temperature yesterday

Maximum temperature yesterday: 64 °F (at 5:00 PM)
Minimum temperature yesterday: 43 °F (at 7:00 AM)
Average temperature yesterday: 52 °F

Past Weeks' High & Low Weather Summary

 TemperatureHumidityPressure
High72 °F (Sep 10, 3:30 PM)100% (Sep 8, 3:30 AM)30.36 "Hg (Sep 8, 3:30 AM)
Low43 °F (Sep 8, 6:00 AM)37% (Sep 9, 4:30 PM)29.77 "Hg (Sep 18, 2:00 PM)
Average58 °F76%30.10 "Hg
* Reported Sep 7 12:00 Noon — Sep 22 12:00 Noon, Limerick, Weather by CustomWeather, © 2014

Note: Actual official high and low records may vary slightly from our data, if they occured in-between our weather recording intervals... More about our weather records

Advertising

Limerick weather history for previous 24 hours

 ConditionsComfort  
Time TempWeatherWind HumidityBarometerVisibility
12:00 PM
Sep 22
59 °FPartly sunny.6 mph82%30.30 "HgN/A
11:30 AM55 °FPartly sunny.6 mph88%30.30 "Hg5 mi
11:00 AM54 °FFog.5 mph94%30.33 "Hg1 mi
10:30 AM52 °FFog.5 mph100%30.33 "Hg1 mi
10:00 AM52 °FFog.3 mph94%30.33 "Hg0 mi
9:30 AM50 °FFog.3 mph100%30.33 "Hg0 mi
9:00 AM50 °FFog.2 mph100%30.33 "Hg0 mi
8:30 AM48 °FFog.2 mph100%30.33 "Hg0 mi
8:00 AM48 °FFog.6 mph100%30.33 "Hg0 mi
7:30 AM48 °FFog.2 mph100%30.33 "Hg0 mi
7:00 AM48 °FFog.1 mph94%30.33 "Hg1 mi
6:30 AM46 °FFog.1 mph100%30.30 "Hg4 mi
6:00 AM46 °FFog.1 mph93%30.30 "Hg4 mi
5:30 AM48 °FPassing clouds.No wind94%30.30 "HgN/A
5:00 AM46 °FPassing clouds.No wind93%30.30 "HgN/A
4:30 AM48 °FPassing clouds.2 mph94%30.30 "HgN/A
4:00 AM52 °FPassing clouds.No wind82%30.33 "HgN/A
3:30 AM52 °FPassing clouds.2 mph88%30.33 "HgN/A
3:00 AM52 °FPartly cloudy.3 mph88%30.33 "HgN/A
2:30 AM52 °FPassing clouds.No wind94%30.33 "HgN/A
2:00 AM52 °FPassing clouds.No wind88%30.33 "HgN/A
1:00 AM52 °FPassing clouds.3 mph88%30.36 "HgN/A
12:30 AM52 °FPassing clouds.7 mph88%30.33 "HgN/A
12:00 AM54 °FPassing clouds.7 mph77%30.36 "HgN/A
11:30 PM
Sep 21
52 °FPassing clouds.2 mph88%30.33 "HgN/A
11:00 PM52 °FPassing clouds.3 mph94%30.33 "HgN/A
10:30 PM54 °FPassing clouds.1 mph88%30.33 "HgN/A
10:00 PM55 °FPassing clouds.No wind82%30.33 "HgN/A
9:30 PM57 °FPassing clouds.1 mph67%30.30 "HgN/A
9:00 PM57 °FPassing clouds.No wind72%30.33 "HgN/A
8:30 PM59 °FPassing clouds.No wind63%30.30 "HgN/A
8:00 PM61 °FPassing clouds.1 mph59%30.30 "HgN/A
7:30 PM63 °FPassing clouds.3 mph52%30.30 "HgN/A
7:00 PM63 °FPassing clouds.5 mph52%30.30 "HgN/A
6:30 PM64 °FPassing clouds.5 mph46%30.30 "HgN/A
6:00 PM64 °FPassing clouds.6 mph46%30.30 "HgN/A
5:30 PM64 °FPassing clouds.6 mph49%30.30 "HgN/A
5:00 PM64 °FPassing clouds.3 mph49%30.30 "HgN/A
4:30 PM63 °FPassing clouds.6 mph52%30.30 "HgN/A
4:00 PM63 °FPassing clouds.5 mph56%30.30 "HgN/A
3:30 PM61 °FPassing clouds.3 mph63%30.30 "HgN/A
3:00 PM61 °FPassing clouds.3 mph63%30.33 "HgN/A
2:30 PM59 °FPassing clouds.3 mph68%30.33 "HgN/A
2:00 PM57 °FPassing clouds.3 mph72%30.33 "HgN/A
1:30 PM55 °FPassing clouds.2 mph77%30.33 "HgN/A
1:00 PM54 °FBroken clouds.3 mph82%30.33 "HgN/A
Weather by CustomWeather, © 2014

See weather overviewHow to use our weather pages